Time,TemperatureF,DewpointF,PressureIn,WindDirection,WindDirectionDegrees,WindSpeedMPH,WindSpeedGustMPH,Humidity,HourlyPrecipIn,Conditions,Clouds,dailyrainin,SoftwareType,DateUTC
2013-02-05 00:00:00,34.5,29.0,27.77,West,280,3.0,3.0,80,0.00,,,0.01,Wunderground v.1.15,2013-02-05 06:00:00,
2013-02-05 00:06:00,34.0,28.5,27.78,West,278,1.0,3.0,80,0.00,,,0.01,Wunderground v.1.15,2013-02-05 06:06:00,
2013-02-05 00:12:00,33.5,28.3,27.78,West,278,1.0,3.0,81,0.00,,,0.01,Wunderground v.1.15,2013-02-05 06:12:00,
2013-02-05 00:18:00,33.2,28.0,27.78,West,271,2.0,3.0,81,0.00,,,0.01,Wunderground v.1.15,2013-02-05 06:18:00,
2013-02-05 00:24:00,32.7,27.8,27.78,West,279,1.0,3.0,82,0.00,,,0.01,Wunderground v.1.15,2013-02-05 06:24:00,
2013-02-05 00:30:00,32.3,27.4,27.80,WNW,303,1.0,5.0,82,0.00,,,0.01,Wunderground v.1.15,2013-02-05 06:30:00,
2013-02-05 00:36:00,32.2,27.6,27.80,WNW,290,3.0,7.0,83,0.00,,,0.01,Wunderground v.1.15,2013-02-05 06:36:00,
2013-02-05 00:42:00,32.5,27.9,27.81,NW,309,4.0,5.0,83,0.00,,,0.01,Wunderground v.1.15,2013-02-05 06:42:00,
2013-02-05 00:48:00,32.7,27.8,27.81,NW,307,6.0,13.0,82,0.00,,,0.01,Wunderground v.1.15,2013-02-05 06:48:00,
2013-02-05 00:54:00,32.8,27.9,27.81,WNW,296,7.0,9.0,82,0.00,,,0.01,Wunderground v.1.15,2013-02-05 06:54:00,
2013-02-05 01:00:00,32.7,27.8,27.81,WNW,300,7.0,10.0,82,0.00,,,0.01,Wunderground v.1.15,2013-02-05 07:00:00,
2013-02-05 01:06:00,32.7,27.8,27.81,West,281,8.0,10.0,82,0.00,,,0.01,Wunderground v.1.15,2013-02-05 07:06:00,
2013-02-05 01:12:00,32.8,27.6,27.81,West,279,9.0,9.0,81,0.00,,,0.01,Wunderground v.1.15,2013-02-05 07:12:00,
2013-02-05 01:18:00,32.8,27.6,27.81,NNW,330,8.0,9.0,81,0.00,,,0.01,Wunderground v.1.15,2013-02-05 07:18:00,
2013-02-05 01:24:00,33.1,27.9,27.81,WNW,301,8.0,10.0,81,0.00,,,0.01,Wunderground v.1.15,2013-02-05 07:24:00,
2013-02-05 01:30:00,33.3,28.1,27.81,WNW,284,9.0,12.0,81,0.00,,,0.00,Wunderground v.1.15,2013-02-05 07:30:00,
2013-02-05 01:36:00,33.4,27.9,27.82,WNW,301,9.0,13.0,80,0.00,,,0.00,Wunderground v.1.15,2013-02-05 07:36:00,
2013-02-05 01:42:00,33.4,27.9,27.82,West,278,9.0,10.0,80,0.00,,,0.00,Wunderground v.1.15,2013-02-05 07:42:00,
2013-02-05 01:47:00,33.5,28.0,27.81,West,281,10.0,14.0,80,0.00,,,0.00,Wunderground v.1.15,2013-02-05 07:47:00,
2013-02-05 01:54:00,33.3,27.8,27.82,WNW,302,10.0,16.0,80,0.00,,,0.00,Wunderground v.1.15,2013-02-05 07:54:00,
2013-02-05 02:00:00,33.2,27.7,27.83,NW,322,10.0,10.0,80,0.00,,,0.00,Wunderground v.1.15,2013-02-05 08:00:00,
2013-02-05 02:06:00,33.2,27.4,27.84,West,270,11.0,12.0,79,0.00,,,0.00,Wunderground v.1.15,2013-02-05 08:06:00,
2013-02-05 02:12:00,32.9,27.4,27.83,NW,322,11.0,11.0,80,0.00,,,0.00,Wunderground v.1.15,2013-02-05 08:12:00,
2013-02-05 02:18:00,32.9,27.4,27.84,WNW,289,10.0,13.0,80,0.00,,,0.00,Wunderground v.1.15,2013-02-05 08:18:00,
2013-02-05 02:23:00,32.9,27.4,27.84,WNW,291,10.0,15.0,80,0.00,,,0.00,Wunderground v.1.15,2013-02-05 08:23:00,
2013-02-05 02:30:00,33.1,27.6,27.85,NNW,333,10.0,16.0,80,0.00,,,0.00,Wunderground v.1.15,2013-02-05 08:30:00,
2013-02-05 02:36:00,33.3,27.8,27.85,WNW,297,10.0,16.0,80,0.00,,,0.00,Wunderground v.1.15,2013-02-05 08:36:00,
2013-02-05 02:41:00,33.4,27.6,27.85,WNW,295,10.0,12.0,79,0.00,,,0.00,Wunderground v.1.15,2013-02-05 08:41:00,
2013-02-05 02:48:00,33.3,27.5,27.85,WNW,301,10.0,14.0,79,0.00,,,0.00,Wunderground v.1.15,2013-02-05 08:48:00,
2013-02-05 02:54:00,33.2,27.4,27.85,West,278,10.0,12.0,79,0.00,,,0.00,Wunderground v.1.15,2013-02-05 08:54:00,
2013-02-05 03:00:00,33.0,27.2,27.86,NW,311,10.0,10.0,79,0.00,,,0.00,Wunderground v.1.15,2013-02-05 09:00:00,
2013-02-05 03:06:00,32.8,27.0,27.86,WNW,300,10.0,20.0,79,0.00,,,0.00,Wunderground v.1.15,2013-02-05 09:06:00,
2013-02-05 03:12:00,32.8,27.0,27.86,NW,320,10.0,20.0,79,0.00,,,0.00,Wunderground v.1.15,2013-02-05 09:12:00,
2013-02-05 03:18:00,32.7,26.9,27.87,WNW,285,9.0,20.0,79,0.00,,,0.00,Wunderground v.1.15,2013-02-05 09:18:00,
2013-02-05 03:24:00,32.7,26.6,27.87,WNW,293,10.0,20.0,78,0.00,,,0.00,Wunderground v.1.15,2013-02-05 09:24:00,
2013-02-05 03:30:00,32.5,26.7,27.87,West,281,10.0,10.0,79,0.00,,,0.00,Wunderground v.1.15,2013-02-05 09:30:00,
2013-02-05 03:36:00,32.2,26.4,27.88,WSW,257,9.0,20.0,79,0.00,,,0.00,Wunderground v.1.15,2013-02-05 09:36:00,
2013-02-05 03:42:00,32.0,26.2,27.87,WNW,294,9.0,20.0,79,0.00,,,0.00,Wunderground v.1.15,2013-02-05 09:42:00,
2013-02-05 03:48:00,32.0,26.2,27.88,NW,314,9.0,20.0,79,0.00,,,0.00,Wunderground v.1.15,2013-02-05 09:48:00,
2013-02-05 03:54:00,32.0,26.2,27.88,NW,326,8.0,20.0,79,0.00,,,0.00,Wunderground v.1.15,2013-02-05 09:54:00,
2013-02-05 04:00:00,32.1,26.3,27.88,WNW,295,8.0,20.0,79,0.00,,,0.00,Wunderground v.1.15,2013-02-05 10:00:00,
2013-02-05 04:06:00,32.1,26.3,27.88,West,271,9.0,20.0,79,0.00,,,0.00,Wunderground v.1.15,2013-02-05 10:06:00,
2013-02-05 04:12:00,32.1,26.3,27.89,WNW,294,8.0,20.0,79,0.00,,,0.00,Wunderground v.1.15,2013-02-05 10:12:00,
2013-02-05 04:18:00,32.2,26.4,27.89,NW,307,8.0,20.0,79,0.00,,,0.00,Wunderground v.1.15,2013-02-05 10:18:00,
2013-02-05 04:24:00,32.3,26.5,27.89,WNW,300,8.0,20.0,79,0.00,,,0.00,Wunderground v.1.15,2013-02-05 10:24:00,
2013-02-05 04:30:00,32.4,26.6,27.89,WNW,302,9.0,9.0,79,0.00,,,0.00,Wunderground v.1.15,2013-02-05 10:30:00,
2013-02-05 04:36:00,32.5,26.7,27.90,West,274,11.0,20.0,79,0.00,,,0.00,Wunderground v.1.15,2013-02-05 10:36:00,
2013-02-05 04:42:00,32.4,26.6,27.90,WNW,303,10.0,20.0,79,0.00,,,0.00,Wunderground v.1.15,2013-02-05 10:42:00,
2013-02-05 04:48:00,32.3,26.5,27.91,NW,308,9.0,20.0,79,0.00,,,0.00,Wunderground v.1.15,2013-02-05 10:48:00,
2013-02-05 04:53:00,32.2,26.7,27.91,NW,310,8.0,20.0,80,0.00,,,0.00,Wunderground v.1.15,2013-02-05 10:53:00,
2013-02-05 05:00:00,32.3,26.8,27.92,WNW,301,8.0,8.0,80,0.00,,,0.00,Wunderground v.1.15,2013-02-05 11:00:00,
2013-02-05 05:06:00,32.4,26.6,27.92,NW,311,8.0,20.0,79,0.00,,,0.00,Wunderground v.1.15,2013-02-05 11:06:00,
2013-02-05 05:11:00,32.3,26.5,27.92,West,271,9.0,20.0,79,0.00,,,0.00,Wunderground v.1.15,2013-02-05 11:11:00,
2013-02-05 05:18:00,32.1,26.6,27.92,WNW,293,7.0,20.0,80,0.00,,,0.00,Wunderground v.1.15,2013-02-05 11:18:00,
2013-02-05 05:24:00,32.0,26.5,27.93,NW,304,8.0,20.0,80,0.00,,,0.00,Wunderground v.1.15,2013-02-05 11:24:00,
2013-02-05 05:29:00,31.8,26.3,27.93,WNW,297,9.0,9.0,80,0.00,,,0.00,Wunderground v.1.15,2013-02-05 11:29:00,
2013-02-05 05:36:00,31.7,26.2,27.93,WNW,298,8.0,20.0,80,0.00,,,0.00,Wunderground v.1.15,2013-02-05 11:36:00,
2013-02-05 05:42:00,31.7,26.2,27.93,NW,318,8.0,20.0,80,0.00,,,0.00,Wunderground v.1.15,2013-02-05 11:42:00,
2013-02-05 05:48:00,31.6,26.1,27.93,WNW,293,8.0,20.0,80,0.00,,,0.00,Wunderground v.1.15,2013-02-05 11:48:00,
2013-02-05 05:54:00,31.6,26.1,27.93,NW,325,8.0,20.0,80,0.00,,,0.00,Wunderground v.1.15,2013-02-05 11:54:00,
2013-02-05 06:00:00,31.6,26.1,27.94,WNW,295,8.0,20.0,80,0.00,,,0.00,Wunderground v.1.15,2013-02-05 12:00:00,
2013-02-05 06:06:00,31.6,26.1,27.94,NW,309,8.0,20.0,80,0.00,,,0.00,Wunderground v.1.15,2013-02-05 12:06:00,
2013-02-05 06:12:00,31.5,26.0,27.94,West,269,8.0,20.0,80,0.00,,,0.00,Wunderground v.1.15,2013-02-05 12:12:00,
2013-02-05 06:18:00,31.5,26.0,27.94,WNW,300,8.0,20.0,80,0.00,,,0.00,Wunderground v.1.15,2013-02-05 12:18:00,
2013-02-05 06:24:00,31.5,26.0,27.95,WNW,288,8.0,20.0,80,0.00,,,0.00,Wunderground v.1.15,2013-02-05 12:24:00,
2013-02-05 06:30:00,31.4,26.2,27.95,WNW,298,8.0,8.0,81,0.00,,,0.00,Wunderground v.1.15,2013-02-05 12:30:00,
2013-02-05 06:36:00,31.3,26.1,27.95,NW,304,7.0,20.0,81,0.00,,,0.00,Wunderground v.1.15,2013-02-05 12:36:00,
2013-02-05 06:41:00,31.3,26.1,27.95,NW,304,7.0,11.0,81,0.00,,,0.00,Wunderground v.1.15,2013-02-05 12:41:00,
2013-02-05 06:48:00,31.3,26.1,27.96,West,276,8.0,20.0,81,0.00,,,0.00,Wunderground v.1.15,2013-02-05 12:48:00,
2013-02-05 06:54:00,31.3,26.1,27.96,NW,308,8.0,20.0,81,0.00,,,0.00,Wunderground v.1.15,2013-02-05 12:54:00,
2013-02-05 07:00:00,31.3,26.1,27.96,WNW,293,7.0,7.0,81,0.00,,,0.00,Wunderground v.1.15,2013-02-05 13:00:00,
2013-02-05 07:05:00,31.3,26.1,27.97,North,354,7.0,20.0,81,0.00,,,0.00,Wunderground v.1.15,2013-02-05 13:05:00,
2013-02-05 07:12:00,31.4,26.2,27.97,NW,313,8.0,10.0,81,0.00,,,0.00,Wunderground v.1.15,2013-02-05 13:12:00,
2013-02-05 07:18:00,31.4,26.2,27.98,NW,325,8.0,20.0,81,0.00,,,0.00,Wunderground v.1.15,2013-02-05 13:18:00,
2013-02-05 07:23:00,31.4,26.2,27.98,WNW,285,8.0,20.0,81,0.00,,,0.00,Wunderground v.1.15,2013-02-05 13:23:00,
2013-02-05 07:30:00,31.3,26.1,27.98,NW,323,7.0,7.0,81,0.00,,,0.00,Wunderground v.1.15,2013-02-05 13:30:00,
2013-02-05 07:36:00,31.4,26.2,27.98,WNW,294,7.0,20.0,81,0.00,,,0.00,Wunderground v.1.15,2013-02-05 13:36:00,
2013-02-05 07:42:00,31.4,26.2,27.98,WNW,293,6.0,20.0,81,0.00,,,0.00,Wunderground v.1.15,2013-02-05 13:42:00,
2013-02-05 07:48:00,31.4,26.2,27.98,WNW,301,6.0,20.0,81,0.00,,,0.00,Wunderground v.1.15,2013-02-05 13:48:00,
2013-02-05 07:54:00,31.5,26.3,27.98,NW,310,6.0,20.0,81,0.00,,,0.00,Wunderground v.1.15,2013-02-05 13:54:00,
2013-02-05 08:00:00,31.5,26.3,27.99,WNW,293,5.0,20.0,81,0.00,,,0.00,Wunderground v.1.15,2013-02-05 14:00:00,
2013-02-05 08:06:00,31.6,26.4,27.99,NW,319,5.0,20.0,81,0.00,,,0.00,Wunderground v.1.15,2013-02-05 14:06:00,
2013-02-05 08:12:00,31.6,26.7,28.00,NW,307,6.0,9.0,82,0.00,,,0.00,Wunderground v.1.15,2013-02-05 14:12:00,
2013-02-05 08:18:00,31.5,26.6,28.00,NW,321,6.0,20.0,82,0.00,,,0.00,Wunderground v.1.15,2013-02-05 14:18:00,
2013-02-05 08:24:00,31.6,26.7,28.00,WNW,290,8.0,20.0,82,0.00,,,0.00,Wunderground v.1.15,2013-02-05 14:24:00,
2013-02-05 08:30:00,31.6,26.7,28.00,WNW,293,8.0,20.0,82,0.00,,,0.00,Wunderground v.1.15,2013-02-05 14:30:00,
2013-02-05 08:36:00,31.6,26.7,28.00,WNW,291,9.0,20.0,82,0.00,,,0.00,Wunderground v.1.15,2013-02-05 14:36:00,
2013-02-05 08:42:00,31.5,26.6,28.00,NW,315,8.0,20.0,82,0.00,,,0.00,Wunderground v.1.15,2013-02-05 14:42:00,
2013-02-05 08:48:00,31.4,26.5,28.01,NNW,328,7.0,20.0,82,0.00,,,0.00,Wunderground v.1.15,2013-02-05 14:48:00,
2013-02-05 08:54:00,31.5,26.6,28.01,NW,310,8.0,20.0,82,0.00,,,0.00,Wunderground v.1.15,2013-02-05 14:54:00,
2013-02-05 09:00:00,31.4,26.5,28.02,WNW,285,8.0,8.0,82,0.00,,,0.00,Wunderground v.1.15,2013-02-05 15:00:00,
2013-02-05 09:06:00,31.4,26.5,28.02,NW,320,8.0,20.0,82,0.00,,,0.00,Wunderground v.1.15,2013-02-05 15:06:00,
2013-02-05 09:12:00,31.4,26.8,28.02,NW,311,6.0,20.0,83,0.00,,,0.00,Wunderground v.1.15,2013-02-05 15:12:00,
2013-02-05 09:18:00,31.4,26.8,28.02,NW,319,6.0,20.0,83,0.00,,,0.00,Wunderground v.1.15,2013-02-05 15:18:00,
2013-02-05 09:24:00,30.8,26.0,28.03,NNE,23,6.0,20.0,82,0.00,,,0.00,Wunderground v.1.15,2013-02-05 15:24:00,
2013-02-05 09:30:00,29.6,25.1,28.03,North,5,5.0,20.0,83,0.00,,,0.00,Wunderground v.1.15,2013-02-05 15:30:00,
2013-02-05 09:36:00,28.8,24.3,28.04,NNE,33,4.0,20.0,83,0.00,,,0.00,Wunderground v.1.15,2013-02-05 15:36:00,
2013-02-05 09:42:00,28.2,24.0,28.04,NNE,26,4.0,20.0,84,0.00,,,0.00,Wunderground v.1.15,2013-02-05 15:42:00,
2013-02-05 09:48:00,27.8,23.9,28.04,NNE,18,3.0,20.0,85,0.00,,,0.00,Wunderground v.1.15,2013-02-05 15:48:00,
2013-02-05 09:54:00,27.7,23.8,28.04,NE,50,4.0,20.0,85,0.00,,,0.00,Wunderground v.1.15,2013-02-05 15:54:00,
2013-02-05 10:00:00,27.5,23.6,28.04,NNE,18,4.0,20.0,85,0.00,,,0.00,Wunderground v.1.15,2013-02-05 16:00:00,
2013-02-05 10:06:00,27.4,23.5,28.04,NE,34,4.0,20.0,85,0.00,,,0.00,Wunderground v.1.15,2013-02-05 16:06:00,
2013-02-05 10:12:00,27.1,23.2,28.04,ENE,67,4.0,20.0,85,0.00,,,0.00,Wunderground v.1.15,2013-02-05 16:12:00,
2013-02-05 10:18:00,26.9,23.0,28.05,ENE,63,4.0,20.0,85,0.00,,,0.00,Wunderground v.1.15,2013-02-05 16:18:00,
2013-02-05 10:24:00,26.6,22.7,28.05,NE,37,3.0,20.0,85,0.00,,,0.00,Wunderground v.1.15,2013-02-05 16:24:00,
2013-02-05 10:29:00,26.1,22.2,28.05,NE,46,4.0,4.0,85,0.00,,,0.00,Wunderground v.1.15,2013-02-05 16:29:00,
2013-02-05 10:36:00,26.0,22.1,28.06,NW,316,3.0,20.0,85,0.00,,,0.00,Wunderground v.1.15,2013-02-05 16:36:00,
2013-02-05 10:42:00,25.8,21.9,28.06,NNW,343,3.0,20.0,85,0.00,,,0.00,Wunderground v.1.15,2013-02-05 16:42:00,
2013-02-05 10:48:00,25.7,21.8,28.06,NNE,18,4.0,20.0,85,0.00,,,0.00,Wunderground v.1.15,2013-02-05 16:48:00,
2013-02-05 10:54:00,25.4,21.5,28.06,ENE,65,4.0,20.0,85,0.00,,,0.00,Wunderground v.1.15,2013-02-05 16:54:00,
2013-02-05 11:00:00,25.0,21.1,28.06,ENE,77,4.0,4.0,85,0.00,,,0.00,Wunderground v.1.15,2013-02-05 17:00:00,
2013-02-05 11:06:00,25.0,21.4,28.06,NE,45,3.0,20.0,86,0.00,,,0.00,Wunderground v.1.15,2013-02-05 17:06:00,
2013-02-05 11:12:00,25.0,21.1,28.06,East,82,2.0,20.0,85,0.00,,,0.00,Wunderground v.1.15,2013-02-05 17:12:00,
2013-02-05 11:18:00,24.8,20.9,28.07,SE,141,1.0,20.0,85,0.00,,,0.00,Wunderground v.1.15,2013-02-05 17:18:00,
2013-02-05 11:24:00,25.1,21.2,28.07,SE,141,0.0,20.0,85,0.00,,,0.00,Wunderground v.1.15,2013-02-05 17:24:00,
2013-02-05 11:30:00,25.5,21.6,28.06,NNE,18,0.0,20.0,85,0.00,,,0.00,Wunderground v.1.15,2013-02-05 17:30:00,
2013-02-05 11:36:00,25.4,21.2,28.06,NE,50,2.0,20.0,84,0.00,,,0.00,Wunderground v.1.15,2013-02-05 17:36:00,
2013-02-05 11:41:00,25.4,21.2,28.07,NE,37,3.0,20.0,84,0.00,,,0.00,Wunderground v.1.15,2013-02-05 17:41:00,
2013-02-05 11:48:00,25.6,21.4,28.07,NE,43,3.0,20.0,84,0.00,,,0.00,Wunderground v.1.15,2013-02-05 17:48:00,
2013-02-05 11:54:00,25.7,21.3,28.07,North,354,2.0,20.0,83,0.00,,,0.00,Wunderground v.1.15,2013-02-05 17:54:00,
2013-02-05 12:00:00,26.0,21.5,28.07,NNE,27,1.0,1.0,83,0.00,,,0.00,Wunderground v.1.15,2013-02-05 18:00:00,
2013-02-05 12:06:00,25.9,20.9,28.07,North,352,1.0,20.0,81,0.00,,,0.00,Wunderground v.1.15,2013-02-05 18:06:00,
2013-02-05 12:12:00,25.8,21.1,28.07,NE,45,2.0,20.0,82,0.00,,,0.00,Wunderground v.1.15,2013-02-05 18:12:00,
2013-02-05 12:17:00,25.8,21.1,28.07,NNE,20,2.0,20.0,82,0.00,,,0.00,Wunderground v.1.15,2013-02-05 18:17:00,
2013-02-05 12:24:00,26.0,21.3,28.07,NNE,14,2.0,20.0,82,0.00,,,0.00,Wunderground v.1.15,2013-02-05 18:24:00,
2013-02-05 12:32:00,26.5,21.5,28.07,NNE,15,1.0,20.0,81,0.00,,,0.00,Wunderground v.1.15,2013-02-05 18:32:00,
2013-02-05 12:38:00,26.5,21.5,28.07,NE,40,2.0,20.0,81,0.00,,,0.00,Wunderground v.1.15,2013-02-05 18:38:00,
2013-02-05 12:44:00,26.7,21.7,28.07,ESE,117,3.0,20.0,81,0.00,,,0.00,Wunderground v.1.15,2013-02-05 18:44:00,
2013-02-05 12:50:00,26.5,21.2,28.07,NE,46,3.0,20.0,80,0.00,,,0.00,Wunderground v.1.15,2013-02-05 18:50:00,
2013-02-05 12:56:00,26.5,21.5,28.07,NE,49,4.0,20.0,81,0.00,,,0.00,Wunderground v.1.15,2013-02-05 18:56:00,
2013-02-05 13:02:00,27.1,21.7,28.07,NNE,32,3.0,20.0,80,0.00,,,0.00,Wunderground v.1.15,2013-02-05 19:02:00,
2013-02-05 13:08:00,27.1,21.5,28.07,NNE,18,2.0,20.0,79,0.00,,,0.00,Wunderground v.1.15,2013-02-05 19:08:00,
2013-02-05 13:14:00,27.3,21.6,28.07,NNW,337,3.0,20.0,79,0.00,,,0.00,Wunderground v.1.15,2013-02-05 19:14:00,
2013-02-05 13:20:00,27.8,22.1,28.07,NNE,16,2.0,20.0,79,0.00,,,0.00,Wunderground v.1.15,2013-02-05 19:20:00,
2013-02-05 13:26:00,28.1,22.1,28.07,NNE,27,2.0,20.0,78,0.00,,,0.00,Wunderground v.1.15,2013-02-05 19:26:00,
2013-02-05 13:32:00,28.8,22.5,28.07,NW,308,2.0,3.0,77,0.00,,,0.00,Wunderground v.1.15,2013-02-05 19:32:00,
2013-02-05 13:37:00,29.0,22.1,28.07,WNW,297,2.0,20.0,75,0.00,,,0.00,Wunderground v.1.15,2013-02-05 19:37:00,
2013-02-05 13:44:00,28.9,22.0,28.07,NW,305,3.0,20.0,75,0.00,,,0.00,Wunderground v.1.15,2013-02-05 19:44:00,
2013-02-05 13:50:00,28.9,22.3,28.07,WNW,290,3.0,3.0,76,0.00,,,0.00,Wunderground v.1.15,2013-02-05 19:50:00,
2013-02-05 13:56:00,29.1,22.2,28.06,West,266,2.0,20.0,75,0.00,,,0.00,Wunderground v.1.15,2013-02-05 19:56:00,
2013-02-05 14:01:00,29.0,22.1,28.06,West,278,2.0,20.0,75,0.00,,,0.00,Wunderground v.1.15,2013-02-05 20:01:00,
2013-02-05 14:08:00,29.3,22.4,28.06,WSW,250,2.0,20.0,75,0.00,,,0.00,Wunderground v.1.15,2013-02-05 20:08:00,
2013-02-05 14:14:00,29.5,22.9,28.06,West,273,1.0,20.0,76,0.00,,,0.00,Wunderground v.1.15,2013-02-05 20:14:00,
2013-02-05 14:20:00,29.7,23.1,28.06,WNW,293,1.0,20.0,76,0.00,,,0.00,Wunderground v.1.15,2013-02-05 20:20:00,
2013-02-05 14:26:00,30.0,23.0,28.06,WNW,289,2.0,20.0,75,0.00,,,0.00,Wunderground v.1.15,2013-02-05 20:26:00,
2013-02-05 14:32:00,30.1,23.4,28.06,WNW,302,4.0,20.0,76,0.00,,,0.00,Wunderground v.1.15,2013-02-05 20:32:00,
2013-02-05 14:38:00,30.3,22.7,28.06,WNW,296,5.0,20.0,73,0.00,,,0.00,Wunderground v.1.15,2013-02-05 20:38:00,
2013-02-05 14:44:00,30.4,22.4,28.06,WNW,287,5.0,20.0,72,0.00,,,0.00,Wunderground v.1.15,2013-02-05 20:44:00,
2013-02-05 14:50:00,30.2,21.6,28.06,WNW,288,5.0,5.0,70,0.00,,,0.00,Wunderground v.1.15,2013-02-05 20:50:00,
2013-02-05 14:56:00,30.3,21.7,28.06,WNW,295,5.0,20.0,70,0.00,,,0.00,Wunderground v.1.15,2013-02-05 20:56:00,
2013-02-05 15:02:00,30.6,22.0,28.06,NW,307,6.0,20.0,70,0.00,,,0.00,Wunderground v.1.15,2013-02-05 21:02:00,
2013-02-05 15:08:00,30.8,21.8,28.06,NW,319,6.0,20.0,69,0.00,,,0.00,Wunderground v.1.15,2013-02-05 21:08:00,
2013-02-05 15:14:00,30.8,21.8,28.06,WNW,295,6.0,20.0,69,0.00,,,0.00,Wunderground v.1.15,2013-02-05 21:14:00,
2013-02-05 15:20:00,30.8,21.8,28.06,NNW,347,7.0,20.0,69,0.00,,,0.00,Wunderground v.1.15,2013-02-05 21:20:00,
2013-02-05 15:26:00,30.7,20.7,28.06,WNW,295,7.0,20.0,66,0.00,,,0.00,Wunderground v.1.15,2013-02-05 21:26:00,
2013-02-05 15:32:00,30.5,20.8,28.06,WNW,300,7.0,20.0,67,0.00,,,0.00,Wunderground v.1.15,2013-02-05 21:32:00,
2013-02-05 15:38:00,30.4,20.7,28.06,WNW,285,6.0,20.0,67,0.00,,,0.00,Wunderground v.1.15,2013-02-05 21:38:00,
2013-02-05 15:43:00,30.4,20.7,28.06,WNW,301,6.0,20.0,67,0.00,,,0.00,Wunderground v.1.15,2013-02-05 21:43:00,
2013-02-05 15:50:00,30.9,21.2,28.06,WNW,284,5.0,20.0,67,0.00,,,0.00,Wunderground v.1.15,2013-02-05 21:50:00,
2013-02-05 15:56:00,30.9,21.2,28.06,NW,308,6.0,20.0,67,0.00,,,0.00,Wunderground v.1.15,2013-02-05 21:56:00,
2013-02-05 16:01:00,31.5,21.8,28.06,WNW,303,5.0,20.0,67,0.00,,,0.00,Wunderground v.1.15,2013-02-05 22:01:00,
2013-02-05 16:08:00,31.5,21.4,28.06,WNW,293,4.0,20.0,66,0.00,,,0.00,Wunderground v.1.15,2013-02-05 22:08:00,
2013-02-05 16:14:00,31.2,21.5,28.07,WNW,289,6.0,20.0,67,0.00,,,0.00,Wunderground v.1.15,2013-02-05 22:14:00,
2013-02-05 16:20:00,31.2,21.5,28.07,West,277,6.0,6.0,67,0.00,,,0.00,Wunderground v.1.15,2013-02-05 22:20:00,
2013-02-05 16:26:00,31.3,21.6,28.06,NW,304,5.0,20.0,67,0.00,,,0.00,Wunderground v.1.15,2013-02-05 22:26:00,
2013-02-05 16:32:00,30.7,21.0,28.06,West,278,6.0,7.0,67,0.00,,,0.00,Wunderground v.1.15,2013-02-05 22:32:00,
2013-02-05 16:38:00,30.4,21.1,28.06,WNW,287,7.0,20.0,68,0.00,,,0.00,Wunderground v.1.15,2013-02-05 22:38:00,
2013-02-05 16:44:00,30.5,21.5,28.06,NW,307,6.0,20.0,69,0.00,,,0.00,Wunderground v.1.15,2013-02-05 22:44:00,
2013-02-05 16:50:00,30.5,20.8,28.06,WNW,293,5.0,20.0,67,0.00,,,0.00,Wunderground v.1.15,2013-02-05 22:50:00,
2013-02-05 16:56:00,30.2,20.9,28.06,West,276,6.0,20.0,68,0.00,,,0.00,Wunderground v.1.15,2013-02-05 22:56:00,
2013-02-05 17:02:00,30.2,20.9,28.06,NW,308,4.0,20.0,68,0.00,,,0.00,Wunderground v.1.15,2013-02-05 23:02:00,
2013-02-05 17:08:00,30.0,21.1,28.06,WNW,288,4.0,20.0,69,0.00,,,0.00,Wunderground v.1.15,2013-02-05 23:08:00,
2013-02-05 17:14:00,29.8,21.2,28.06,NW,308,3.0,20.0,70,0.00,,,0.00,Wunderground v.1.15,2013-02-05 23:14:00,
2013-02-05 17:19:00,29.4,20.8,28.06,WNW,297,4.0,4.0,70,0.00,,,0.00,Wunderground v.1.15,2013-02-05 23:19:00,
2013-02-05 17:26:00,29.3,21.1,28.06,NW,305,3.0,20.0,71,0.00,,,0.00,Wunderground v.1.15,2013-02-05 23:26:00,
2013-02-05 17:32:00,29.1,20.9,28.05,NW,307,2.0,20.0,71,0.00,,,0.00,Wunderground v.1.15,2013-02-05 23:32:00,
2013-02-05 17:38:00,28.7,20.8,28.05,NNW,332,1.0,20.0,72,0.00,,,0.00,Wunderground v.1.15,2013-02-05 23:38:00,
2013-02-05 17:44:00,28.3,20.4,28.05,NNW,335,2.0,20.0,72,0.00,,,0.00,Wunderground v.1.15,2013-02-05 23:44:00,
2013-02-05 17:50:00,28.0,20.5,28.04,North,352,2.0,2.0,73,0.00,,,0.00,Wunderground v.1.15,2013-02-05 23:50:00,
2013-02-05 17:56:00,27.5,20.0,28.04,NNE,30,1.0,20.0,73,0.00,,,0.00,Wunderground v.1.15,2013-02-05 23:56:00,
2013-02-05 18:02:00,27.1,19.9,28.05,NNE,32,1.0,20.0,74,0.00,,,0.00,Wunderground v.1.15,2013-02-06 00:02:00,
2013-02-05 18:08:00,26.9,19.7,28.05,NE,43,3.0,20.0,74,0.00,,,0.00,Wunderground v.1.15,2013-02-06 00:08:00,
2013-02-05 18:14:00,26.5,19.6,28.04,North,1,3.0,20.0,75,0.00,,,0.00,Wunderground v.1.15,2013-02-06 00:14:00,
2013-02-05 18:20:00,26.5,20.0,28.04,North,11,4.0,4.0,76,0.00,,,0.00,Wunderground v.1.15,2013-02-06 00:20:00,
2013-02-05 18:26:00,26.5,19.6,28.05,NE,43,4.0,20.0,75,0.00,,,0.00,Wunderground v.1.15,2013-02-06 00:26:00,
2013-02-05 18:32:00,26.4,19.5,28.05,NE,40,3.0,20.0,75,0.00,,,0.00,Wunderground v.1.15,2013-02-06 00:32:00,
2013-02-05 18:38:00,26.3,19.5,28.05,ENE,65,3.0,20.0,75,0.00,,,0.00,Wunderground v.1.15,2013-02-06 00:38:00,
2013-02-05 18:44:00,26.1,19.6,28.05,ENE,70,2.0,20.0,76,0.00,,,0.00,Wunderground v.1.15,2013-02-06 00:44:00,
2013-02-05 18:50:00,25.8,19.3,28.05,East,80,1.0,1.0,76,0.00,,,0.00,Wunderground v.1.15,2013-02-06 00:50:00,
2013-02-05 18:56:00,25.5,19.3,28.05,SE,141,0.0,20.0,77,0.00,,,0.00,Wunderground v.1.15,2013-02-06 00:56:00,
2013-02-05 19:02:00,25.2,19.0,28.04,SE,138,0.0,20.0,77,0.00,,,0.00,Wunderground v.1.15,2013-02-06 01:02:00,
2013-02-05 19:08:00,24.6,18.7,28.04,ESE,107,0.0,20.0,78,0.00,,,0.00,Wunderground v.1.15,2013-02-06 01:08:00,
2013-02-05 19:14:00,24.2,18.6,28.04,ESE,107,0.0,20.0,79,0.00,,,0.00,Wunderground v.1.15,2013-02-06 01:14:00,
2013-02-05 19:20:00,24.4,18.8,28.04,East,79,0.0,20.0,79,0.00,,,0.00,Wunderground v.1.15,2013-02-06 01:20:00,
2013-02-05 19:26:00,24.2,18.6,28.04,East,84,0.0,20.0,79,0.00,,,0.00,Wunderground v.1.15,2013-02-06 01:26:00,
2013-02-05 19:32:00,24.2,18.6,28.03,East,79,0.0,20.0,79,0.00,,,0.00,Wunderground v.1.15,2013-02-06 01:32:00,
2013-02-05 19:38:00,24.1,18.5,28.04,East,84,0.0,20.0,79,0.00,,,0.00,Wunderground v.1.15,2013-02-06 01:38:00,
2013-02-05 19:43:00,24.3,18.4,28.04,East,81,1.0,20.0,78,0.00,,,0.00,Wunderground v.1.15,2013-02-06 01:43:00,
2013-02-05 19:50:00,24.2,18.0,28.04,East,80,0.0,20.0,77,0.00,,,0.00,Wunderground v.1.15,2013-02-06 01:50:00,
2013-02-05 19:56:00,23.9,18.0,28.04,ESE,117,0.0,20.0,78,0.00,,,0.00,Wunderground v.1.15,2013-02-06 01:56:00,
2013-02-05 20:02:00,23.9,18.3,28.04,East,83,0.0,20.0,79,0.00,,,0.00,Wunderground v.1.15,2013-02-06 02:02:00,
2013-02-05 20:07:00,23.9,18.6,28.04,ESE,120,0.0,20.0,80,0.00,,,0.00,Wunderground v.1.15,2013-02-06 02:07:00,
2013-02-05 20:14:00,24.0,18.7,28.03,ESE,118,0.0,20.0,80,0.00,,,0.00,Wunderground v.1.15,2013-02-06 02:14:00,
2013-02-05 20:19:00,24.2,18.9,28.02,ESE,115,1.0,1.0,80,0.00,,,0.00,Wunderground v.1.15,2013-02-06 02:19:00,
2013-02-05 20:26:00,24.2,18.9,28.03,SSE,149,1.0,20.0,80,0.00,,,0.00,Wunderground v.1.15,2013-02-06 02:26:00,
2013-02-05 20:32:00,24.1,18.8,28.03,SSE,148,2.0,20.0,80,0.00,,,0.00,Wunderground v.1.15,2013-02-06 02:32:00,
2013-02-05 20:38:00,23.9,18.6,28.02,SE,126,2.0,20.0,80,0.00,,,0.00,Wunderground v.1.15,2013-02-06 02:38:00,
2013-02-05 20:44:00,23.8,18.5,28.02,SE,132,2.0,20.0,80,0.00,,,0.00,Wunderground v.1.15,2013-02-06 02:44:00,
2013-02-05 20:50:00,23.6,18.3,28.02,SSE,166,2.0,2.0,80,0.00,,,0.00,Wunderground v.1.15,2013-02-06 02:50:00,
2013-02-05 20:56:00,23.5,18.2,28.03,East,91,1.0,20.0,80,0.00,,,0.00,Wunderground v.1.15,2013-02-06 02:56:00,
2013-02-05 21:01:00,23.5,18.2,28.03,ESE,105,2.0,20.0,80,0.00,,,0.00,Wunderground v.1.15,2013-02-06 03:01:00,
2013-02-05 21:08:00,23.4,18.1,28.03,SE,139,2.0,20.0,80,0.00,,,0.00,Wunderground v.1.15,2013-02-06 03:08:00,
2013-02-05 21:14:00,23.3,18.0,28.03,East,96,2.0,20.0,80,0.00,,,0.00,Wunderground v.1.15,2013-02-06 03:14:00,
2013-02-05 21:20:00,23.3,18.0,28.03,ESE,121,2.0,2.0,80,0.00,,,0.00,Wunderground v.1.15,2013-02-06 03:20:00,
2013-02-05 21:26:00,23.4,18.1,28.04,ESE,114,3.0,20.0,80,0.00,,,0.00,Wunderground v.1.15,2013-02-06 03:26:00,
2013-02-05 21:32:00,23.3,18.0,28.03,ESE,112,2.0,4.0,80,0.00,,,0.00,Wunderground v.1.15,2013-02-06 03:32:00,
2013-02-05 21:38:00,23.3,18.0,28.03,ESE,118,1.0,20.0,80,0.00,,,0.00,Wunderground v.1.15,2013-02-06 03:38:00,
2013-02-05 21:44:00,23.2,18.2,28.03,SE,129,2.0,20.0,81,0.00,,,0.00,Wunderground v.1.15,2013-02-06 03:44:00,
2013-02-05 21:50:00,23.2,18.2,28.03,ESE,117,2.0,20.0,81,0.00,,,0.00,Wunderground v.1.15,2013-02-06 03:50:00,
2013-02-05 21:56:00,23.1,18.1,28.02,SE,139,3.0,20.0,81,0.00,,,0.00,Wunderground v.1.15,2013-02-06 03:56:00,
2013-02-05 22:02:00,23.0,18.0,28.02,SE,131,4.0,20.0,81,0.00,,,0.00,Wunderground v.1.15,2013-02-06 04:02:00,
2013-02-05 22:08:00,23.0,18.0,28.02,SE,132,3.0,20.0,81,0.00,,,0.00,Wunderground v.1.15,2013-02-06 04:08:00,
2013-02-05 22:14:00,22.9,17.9,28.02,SE,129,3.0,20.0,81,0.00,,,0.00,Wunderground v.1.15,2013-02-06 04:14:00,
2013-02-05 22:20:00,22.9,17.9,28.01,SE,124,3.0,20.0,81,0.00,,,0.00,Wunderground v.1.15,2013-02-06 04:20:00,
2013-02-05 22:26:00,22.9,17.9,28.01,SE,134,3.0,20.0,81,0.00,,,0.00,Wunderground v.1.15,2013-02-06 04:26:00,
2013-02-05 22:32:00,22.9,18.2,28.01,SE,127,3.0,20.0,82,0.00,,,0.00,Wunderground v.1.15,2013-02-06 04:32:00,
2013-02-05 22:38:00,22.9,18.2,28.01,East,90,3.0,20.0,82,0.00,,,0.00,Wunderground v.1.15,2013-02-06 04:38:00,
2013-02-05 22:44:00,23.0,18.3,28.01,SE,131,3.0,20.0,82,0.00,,,0.00,Wunderground v.1.15,2013-02-06 04:44:00,
2013-02-05 22:50:00,23.1,18.4,28.00,SE,146,4.0,20.0,82,0.00,,,0.00,Wunderground v.1.15,2013-02-06 04:50:00,
2013-02-05 22:56:00,23.2,18.5,28.00,SE,139,5.0,20.0,82,0.00,,,0.00,Wunderground v.1.15,2013-02-06 04:56:00,
2013-02-05 23:00:00,23.4,18.7,28.00,SE,132,5.0,20.0,82,0.00,,,0.00,Wunderground v.1.15,2013-02-06 05:00:00,
2013-02-05 23:02:00,23.5,18.8,28.00,South,173,5.0,20.0,82,0.00,,,0.00,Wunderground v.1.15,2013-02-06 05:02:00,
2013-02-05 23:05:00,23.6,18.9,28.00,SE,138,5.0,20.0,82,0.00,,,0.00,Wunderground v.1.15,2013-02-06 05:05:00,
2013-02-05 23:12:00,23.8,19.1,27.99,SSE,150,5.0,20.0,82,0.00,,,0.00,Wunderground v.1.15,2013-02-06 05:12:00,
2013-02-05 23:14:00,23.8,19.1,27.99,SE,139,5.0,20.0,82,0.00,,,0.00,Wunderground v.1.15,2013-02-06 05:14:00,
2013-02-05 23:20:00,23.9,19.2,27.99,SE,146,5.0,20.0,82,0.00,,,0.00,Wunderground v.1.15,2013-02-06 05:20:00,
2013-02-05 23:26:00,24.0,19.6,27.98,South,169,6.0,20.0,83,0.00,,,0.00,Wunderground v.1.15,2013-02-06 05:26:00,
2013-02-05 23:32:00,24.1,19.7,27.99,ESE,121,5.0,20.0,83,0.00,,,0.00,Wunderground v.1.15,2013-02-06 05:32:00,
2013-02-05 23:38:00,24.0,19.6,27.98,SE,132,5.0,20.0,83,0.00,,,0.00,Wunderground v.1.15,2013-02-06 05:38:00,
2013-02-05 23:46:00,23.9,19.5,27.98,SE,134,6.0,20.0,83,0.00,,,0.00,Wunderground v.1.15,2013-02-06 05:46:00,
2013-02-05 23:51:00,23.8,19.7,27.98,SE,124,6.0,20.0,84,0.00,,,0.00,Wunderground v.1.15,2013-02-06 05:51:00,
2013-02-05 23:58:00,23.7,19.6,27.98,ESE,122,7.0,20.0,84,0.00,,,0.00,Wunderground v.1.15,2013-02-06 05:58:00,